Location: Weymouth Pines Observatory
(42.9326°N, 81.3883°W)
Time: 15:08:46
(UTC-04:00)

Daily predictions for brighter satellites

Satellite Brightness Start Highest point End
(mag) Time Altitude Azimuth Time Altitude Azimuth Time Altitude Azimuth
Helios 1A 3.0 21:22:00 10° SSE 21:26:14 86° ENE 21:30:28 10° NNW
PSLV R/B 3.3 21:25:24 10° WSW 21:28:26 52° S 21:31:31 10° E
Resurs 01 Rocket 3.3 21:27:35 10° SSW 21:31:36 33° W 21:35:39 10° NNW
Cosmos 1544 Rocket 3.6 21:28:02 10° N 21:32:23 84° W 21:36:42 10° S
Envisat 3.1 21:28:45 10° SSE 21:33:49 82° WSW 21:38:56 10° NNW
Cosmos 292 Rocket 3.8 21:29:11 10° SSW 21:34:01 79° ESE 21:38:51 10° NNE
Iridium 4 Rocket 4.0 21:32:46 10° N 21:37:37 63° W 21:42:53 10° S
SPOT 5 4.0 21:34:40 10° ESE 21:38:03 23° ENE 21:41:27 10° NNE
Cosmos 1666 3.6 21:35:47 10° NNE 21:39:09 31° ENE 21:42:12 12° SE
Lacrosse 5 rocket 4.4 21:37:39 10° WNW 21:40:59 20° NNW 21:44:23 10° NNE
Meteor 1-19 Rocket 4.4 21:42:54 10° S 21:48:36 58° E 21:54:15 10° NNE
Cosmos 1025 Rocket 4.3 21:45:55 12° SE 21:48:48 23° E 21:52:11 10° NE
ASTEX 1 3.7 21:44:15 10° SSE 21:48:59 51° E 21:53:44 10° N
RESURS DK-1 3.4 21:49:38 10° SW 21:53:39 49° WNW 21:57:41 10° NNE
MOS 1-B Rocket 4.3 21:49:25 12° SE 21:54:35 52° ENE 22:00:41 10° N
Aureole 3 Rocket 3.8 21:49:10 10° S 21:56:03 65° E 22:00:56 10° NNE
Terra 3.9 21:54:35 10° E 21:56:58 14° ENE 21:59:20 10° NNE
Cosmos 1455 Rocket 3.8 21:53:36 10° NNW 21:57:52 51° W 22:02:03 10° S
NOSS 2-2 (E) 3.4 21:54:07 10° SSW 21:58:08 77° ESE 22:02:49 10° NE
Cosmos 2369 Rocket 4.3 21:55:57 10° NW 22:00:16 23° W 22:04:36 10° SSW
Cosmos 1975 4.0 21:56:30 10° NNW 22:00:21 42° W 22:04:12 10° SSW
Cosmos 923 Rocket 4.0 21:58:00 10° S 22:03:18 74° ESE 22:08:37 10° NNE
Cosmos 405 Rocket 2.6 22:00:31 10° S 22:04:14 82° E 22:08:03 10° NNE
Helios 1B rocket 3.7 22:00:40 10° N 22:04:37 44° WNW 22:08:32 10° SW
Cosmos 1656 Rocket 3.6 22:00:04 10° NNW 22:05:32 86° WSW 22:10:13 14° SSE
Cosmos 1346 2.7 22:03:17 12° S 22:05:44 69° E 22:08:30 10° NNE
Cosmos 1238 Rocket 4.3 22:01:02 10° SSE 22:07:32 57° E 22:14:00 10° NNE
YAOGAN 6 3.1 22:05:29 10° S 22:08:55 56° W 22:12:22 10° NNW
Tiangong 2 2.6 22:06:38 10° SSW 22:08:38 20° SSE 22:08:38 20° SSE
H-2A R/B 4.1 22:08:01 12° E 22:10:26 17° ENE 22:13:19 10° NNE
MetOp-A 4.2 22:06:10 14° SSE 22:10:47 73° ENE 22:16:09 10° N
Cosmos 374 Rocket 4.2 22:07:40 10° NW 22:11:28 84° SW 22:14:00 21° SSE
COSMOS 2455 3.7 22:06:34 10° NW 22:12:15 45° WSW 22:17:53 10° S
Meteor 1-13 Rocket 4.4 22:06:39 10° S 22:12:37 84° W 22:18:34 10° N
Cosmos 1939 Rocket 4.4 22:10:51 10° SSW 22:14:18 31° W 22:17:47 10° NNW
Cosmos 1441 Rocket 3.1 22:15:21 15° S 22:18:17 61° E 22:21:59 10° NNE
Cosmos 1943 Rocket 3.8 22:14:30 10° NW 22:19:17 29° WSW 22:24:00 10° SSW
Cosmos 1818 4.2 22:17:28 10° SW 22:22:50 60° NW 22:28:14 10° NNE
OAO 2 Rocket 4.1 22:19:10 10° SW 22:23:30 31° S 22:25:27 23° SE
ERS-1 Rocket 3.4 22:21:30 12° S 22:26:07 61° W 22:31:07 10° NNW
H-2A R/B 2.4 22:24:05 22° SE 22:26:55 47° ENE 22:31:43 10° N
NOAA 11 4.3 22:22:32 15° S 22:27:07 80° WSW 22:32:35 10° NNW
COSMOS 2406 3.3 22:22:31 10° SSW 22:28:16 85° WNW 22:34:01 10° NNE
Okean 1-7 Rocket 3.5 22:25:22 15° S 22:28:58 75° E 22:33:28 10° NNE
USA 267 4.2 22:26:11 10° ENE 22:31:10 23° ESE 22:32:18 22° SE
Cosmos 2112 Rocket 4.0 22:30:59 10° SSW 22:36:13 87° WNW 22:41:27 10° NNE
ARGOS 3.1 22:32:24 20° SSE 22:36:13 90° W 22:41:41 10° NNW
NOSS 2-2 (D) 4.4 22:37:03 10° SW 22:40:59 51° NW 22:45:36 10° NNE
DNEPR-1 R/B 3.7 22:37:27 10° NW 22:41:41 68° WSW 22:43:52 29° SSE
Cosmos 2082 Rocket 3.5 22:43:04 20° ESE 22:43:30 21° E 22:47:35 10° NE
Cosmos 1624 Rocket 4.2 22:38:26 10° NNW 22:43:39 59° ENE 22:46:15 29° SE
Intercosmos 24 3.8 22:40:29 10° N 22:44:42 77° W 22:46:21 30° S
Cosmos 1892 Rocket 3.9 22:44:34 32° SE 22:46:09 48° E 22:50:25 10° NNE
SL-24 DEB 4.2 22:44:03 29° SSE 22:46:19 71° E 22:50:58 10° N
CENTAUR R/B 3.6 22:42:08 10° NW 22:49:48 53° WSW 22:55:42 20° S
Cosmos 2181 Rocket 4.2 22:46:01 24° SSE 22:49:48 57° E 22:55:59 10° NNE
IGS 5A 4.3 22:49:33 29° ESE 22:50:43 35° ENE 22:54:32 10° N
Okean 2 3.3 22:48:37 27° S 22:50:46 87° E 22:54:52 10° N
Cosmos 2228 3.7 22:48:38 10° N 22:52:43 39° ENE 22:53:47 33° ESE
SL-27 R/B 3.1 22:50:51 13° SSW 22:54:00 57° WNW 22:57:39 10° N
USA 245 3.4 22:54:49 35° SW 22:55:20 40° WSW 22:57:46 10° NNW
Cosmos 1437 Rocket 2.6 22:52:29 10° N 22:56:20 87° WSW 22:57:30 43° S
Cosmos 2369 4.2 22:51:36 10° NNW 22:57:10 48° ENE 22:59:47 29° ESE
Aureole 1 Rocket 3.6 22:54:20 10° SW 22:57:31 38° WNW 23:00:24 10° N
Cosmos 921 Rocket 3.5 22:55:05 10° N 22:59:29 50° ENE 23:00:46 37° ESE
Cosmos 1606 Rocket 3.4 22:55:44 10° N 23:00:04 86° W 23:01:41 38° S
Cosmos 1680 Rocket 4.5 22:55:14 10° SW 23:00:15 47° WNW 23:05:18 10° N
Cosmos 2056 Rocket 3.4 22:57:01 10° NNW 23:02:15 79° ENE 23:04:17 37° SSE
Cosmos 405 4.2 22:59:43 10° NNW 23:03:02 36° W 23:04:29 25° SW
PSLV R/B 3.7 23:02:17 10° W 23:04:43 43° SW 23:04:43 43° SW
PSLV R/B 4.5 23:09:06 27° NE 23:09:06 27° NE 23:11:00 10° N
Cosmos 1697 Rocket 3.8 23:04:43 10° N 23:09:44 32° NE 23:12:12 23° E
Cosmos 1726 Rocket 3.5 23:07:06 10° N 23:11:25 77° W 23:12:47 43° S
Cosmos 1295 Rocket 4.4 23:07:21 10° N 23:13:34 88° E 23:16:35 33° S
Cosmos 2058 Rocket 3.0 23:10:55 10° N 23:15:21 85° E 23:16:28 50° SSE
SPOT 5 3.9 23:13:45 20° SSW 23:15:58 33° W 23:19:54 10° NNW
SL-19 R/B 4.2 23:12:21 10° NNE 23:17:42 60° ESE 23:19:21 41° SSE
SPOT 1/Viking Rocket 4.1 23:15:21 27° SSW 23:17:56 52° W 23:23:00 10° NNW
COSMOS 2487 3.3 23:19:36 39° ENE 23:19:36 39° ENE 23:22:17 10° NNE
Landsat 7 3.9 23:17:20 40° S 23:19:01 74° WSW 23:23:48 10° NNW
CZ-4B R/B 4.0 23:14:28 10° NNE 23:19:13 41° E 23:19:54 39° ESE
CARTOSAT-1 3.4 23:19:44 54° SSE 23:20:41 83° ENE 23:25:01 10° N
Cosmos 839 Rocket 4.3 23:15:24 10° NNW 23:21:56 88° ENE 23:25:33 35° SSE
Cosmos 1833 Rocket 3.0 23:28:30 42° SE 23:29:16 45° ESE 23:34:36 10° NE
Cosmos 1066 Rocket 4.1 23:28:37 44° SSE 23:30:20 72° E 23:35:55 10° NNE
Cosmos 1766 4.2 23:30:17 10° N 23:33:44 35° ENE 23:33:44 35° ENE
Terra 1.8 23:32:52 49° S 23:34:05 74° WSW 23:38:52 10° NNW
Cosmos 1452 Rocket 3.6 23:29:22 10° NNW 23:34:37 64° ENE 23:35:54 48° SE
Cosmos 1656 3.7 23:29:17 10° NNW 23:34:43 66° ENE 23:36:14 46° SE
Spot 4 3.9 23:37:32 54° SE 23:38:24 65° ENE 23:43:10 10° N
SL-8 Rocket 4.0 23:33:51 10° N 23:40:06 78° W 23:42:36 39° S
Cosmos 2366 rocket 3.9 23:37:24 10° N 23:43:36 84° E 23:45:36 46° SSE
Cosmos 1812 Rocket 3.8 23:41:20 10° N 23:45:44 53° E 23:45:57 53° E
H-2A R/B 2.6 23:45:08 47° SW 23:45:59 55° W 23:50:27 10° NNW
ISS -1.4 23:52:40 18° NE 23:52:40 18° NE 23:53:37 10° NE
Meteor 1-4 Rocket 3.0 23:52:31 10° NNW 23:55:39 57° NW 23:55:39 57° NW
